KCPK

Details ICAO KCPK
Name CHESAPEAKE RGNL
Region United States
Timezone America/New_York (UTC-4.0)
Plans Departing 22
Arriving 20
Stats Elevation 20 ft / 6 m (AMSL)
Location 36.665618° -76.320663°
Runways 1
Magnetic Variation 10.804° W
Sunrise 2018-05-21 09:55:04 UTC / 2018-05-21 05:55:04 Local
Sunset 2018-05-22 00:11:34 UTC / 2018-05-21 20:11:34 Local
Advertisement - Login to hide

Runways

ID Width Length Bearing (true) Bearing (mag) Surface Threshold Offset Overrun Length
05 100 ft / 30 m 5,504 ft / 1,678 m 36.78° 47.58° Asphalt 0 ft / 0 m 0 ft / 0 m
23 100 ft / 30 m 5,504 ft / 1,678 m 216.79° 227.59° Asphalt 0 ft / 0 m 0 ft / 0 m

Approach Navaids

Runway Type Ident Frequency Range Bearing (true) Bearing (mag) Slope Elevation
05 Localiser IEYK 111.70 MHz 18 nm / 33 km 36.81° 47.61° - 21 ft / 6 m (AMSL)
05 Glidescope IEYK 111.70 MHz 10 nm / 19 km 36.79° 47.59° 3.00° 14 ft / 4 m (AMSL)
05 DME IEYK 111.70 MHz 18 nm / 33 km - - - 16 ft / 5 m (AMSL)

Map

Weather


0- 5 10 15 20 25 30 35+ Temperature / ° C

Clouds and Precipitation
Forecast for 2018-05-21 18:00 UTC. Updated 6 hours ago

Ground ~20,000 ft ~40,000 ft Winds

METAR

KCPK 212235Z AUTO 08006KT 10SM SCT015 OVC028 18/17 A3014 RMK AO2 T01810167

TAF

Not found

Frequencies

Recorded 123.67 MHz AWOS 3
Approach 118.90 MHz NORFOLK APP/DEP
Unicom 123.05 MHz CTAF/UNICOM
Warning: Do not use this data for real-world aviation or navigation. No guarantee of current accuracy is given.